Total_Precipitation_Accumulation
0.23 0.19 0.27 0.32 0.30 0.32 0.42 0.42 0.34 0.19 0.15 0.18 0.17 0.18 0.18 0.16 0.13 0.10 0.10 0.08 0.08 0.10 0.13 0.14 0.14 0.14 0.16 0.21 0.30 0.48 0.70 0.88 0.89 0.85 0.92 0.97 0.97 1.04 1.10 1.14 1.21 1.35 1.46 1.58
0.19 0.11 0.16 0.22 0.18 0.20 0.22 0.23 0.21 0.15 0.17 0.15 0.16 0.15 0.16 0.15 0.14 0.13 0.12 0.11 0.08 0.09 0.12 0.14 0.14 0.14 0.16 0.18 0.24 0.37 0.55 0.75 0.86 0.84 0.88 0.96 0.95 1.01 1.08 1.14 1.19 1.31 1.38 1.40
0.32 0.12 0.29 0.40 0.24 0.21 0.20 0.20 0.21 0.23 0.21 0.15 0.15 0.15 0.16 0.15 0.15 0.16 0.15 0.13 0.11 0.11 0.13 0.14 0.14 0.15 0.17 0.18 0.19 0.28 0.43 0.62 0.76 0.79 0.79 0.84 0.87 0.95 1.03 1.12 1.11 1.17 1.22 1.21
0.54 0.38 0.65 0.39 0.16 0.18 0.22 0.23 0.23 0.23 0.20 0.17 0.17 0.17 0.15 0.13 0.15 0.16 0.16 0.15 0.14 0.14 0.14 0.14 0.13 0.14 0.15 0.17 0.19 0.24 0.35 0.51 0.69 0.74 0.73 0.73 0.77 0.81 0.89 0.99 1.06 1.04 1.04 1.02
0.81 0.58 0.36 0.18 0.10 0.17 0.27 0.30 0.22 0.18 0.14 0.14 0.14 0.15 0.15 0.13 0.10 0.11 0.14 0.14 0.14 0.16 0.18 0.16 0.14 0.14 0.16 0.18 0.19 0.23 0.35 0.47 0.60 0.71 0.70 0.67 0.72 0.74 0.78 0.83 0.93 0.92 0.91 0.94
0.99 0.72 0.37 0.20 0.08 0.11 0.24 0.36 0.19 0.13 0.11 0.12 0.16 0.21 0.17 0.12 0.08 0.06 0.08 0.10 0.11 0.13 0.15 0.17 0.17 0.16 0.18 0.22 0.23 0.26 0.38 0.49 0.54 0.62 0.65 0.62 0.67 0.73 0.74 0.75 0.79 0.82 0.79 0.82
0.83 0.65 0.26 0.13 0.08 0.13 0.34 0.40 0.17 0.12 0.10 0.11 0.19 0.22 0.15 0.09 0.08 0.06 0.06 0.08 0.09 0.11 0.13 0.16 0.17 0.18 0.19 0.22 0.26 0.28 0.37 0.45 0.50 0.55 0.58 0.57 0.65 0.67 0.71 0.74 0.74 0.73 0.70 0.74
0.62 0.68 0.31 0.12 0.14 0.30 0.35 0.16 0.10 0.08 0.07 0.08 0.10 0.10 0.08 0.08 0.08 0.08 0.06 0.06 0.07 0.09 0.11 0.13 0.14 0.16 0.18 0.23 0.28 0.31 0.34 0.38 0.46 0.52 0.54 0.54 0.64 0.64 0.64 0.70 0.73 0.71 0.69 0.73
0.46 0.35 0.18 0.15 0.20 0.21 0.16 0.12 0.08 0.07 0.06 0.07 0.08 0.08 0.08 0.09 0.08 0.09 0.07 0.05 0.06 0.08 0.10 0.11 0.13 0.14 0.16 0.21 0.27 0.35 0.34 0.36 0.43 0.51 0.56 0.58 0.63 0.64 0.65 0.66 0.70 0.72 0.71 0.69
0.26 0.16 0.13 0.13 0.14 0.11 0.08 0.08 0.07 0.07 0.08 0.08 0.08 0.07 0.09 0.09 0.10 0.10 0.10 0.07 0.06 0.07 0.10 0.13 0.14 0.15 0.16 0.20 0.27 0.36 0.37 0.37 0.42 0.47 0.55 0.56 0.60 0.61 0.64 0.67 0.76 0.80 0.74 0.69
0.23 0.14 0.11 0.09 0.09 0.09 0.08 0.06 0.06 0.06 0.06 0.07 0.08 0.08 0.08 0.09 0.10 0.11 0.11 0.08 0.07 0.07 0.10 0.13 0.16 0.16 0.15 0.19 0.27 0.35 0.39 0.39 0.41 0.44 0.55 0.57 0.59 0.60 0.62 0.61 0.78 0.91 0.82 0.80
0.19 0.12 0.14 0.10 0.07 0.08 0.09 0.08 0.08 0.08 0.07 0.06 0.07 0.08 0.08 0.11 0.11 0.10 0.10 0.08 0.07 0.07 0.09 0.13 0.16 0.18 0.17 0.20 0.26 0.34 0.40 0.42 0.43 0.45 0.55 0.57 0.59 0.63 0.66 0.66 0.68 0.69 0.72 0.80
0.11 0.06 0.08 0.08 0.07 0.06 0.08 0.09 0.10 0.10 0.10 0.09 0.08 0.08 0.09 0.10 0.10 0.10 0.08 0.08 0.08 0.09 0.10 0.13 0.15 0.19 0.21 0.22 0.25 0.32 0.40 0.45 0.46 0.46 0.53 0.57 0.52 0.57 0.60 0.61 0.63 0.64 0.65 0.70
0.07 0.08 0.09 0.08 0.08 0.06 0.06 0.07 0.09 0.09 0.09 0.09 0.09 0.09 0.09 0.09 0.09 0.08 0.07 0.08 0.08 0.08 0.10 0.13 0.15 0.18 0.24 0.25 0.24 0.30 0.39 0.45 0.46 0.47 0.52 0.55 0.51 0.52 0.52 0.59 0.63 0.65 0.69 0.73
0.05 0.07 0.08 0.06 0.06 0.06 0.05 0.06 0.07 0.08 0.08 0.08 0.08 0.08 0.09 0.09 0.09 0.08 0.07 0.08 0.07 0.07 0.09 0.11 0.14 0.18 0.22 0.24 0.24 0.31 0.42 0.48 0.49 0.52 0.55 0.55 0.54 0.54 0.51 0.53 0.56 0.60 0.68 0.82
0.05 0.04 0.04 0.05 0.05 0.06 0.06 0.06 0.08 0.09 0.09 0.09 0.09 0.10 0.11 0.09 0.08 0.07 0.07 0.07 0.08 0.08 0.10 0.12 0.14 0.18 0.22 0.22 0.24 0.30 0.39 0.54 0.59 0.60 0.60 0.59 0.58 0.56 0.56 0.56 0.58 0.61 0.69 0.81
0.10 0.07 0.06 0.06 0.06 0.07 0.08 0.08 0.09 0.11 0.11 0.11 0.12 0.12 0.12 0.09 0.07 0.07 0.07 0.08 0.09 0.10 0.11 0.13 0.15 0.19 0.22 0.22 0.27 0.33 0.42 0.52 0.62 0.64 0.64 0.65 0.64 0.61 0.60 0.61 0.63 0.64 0.68 0.80
0.11 0.10 0.10 0.11 0.11 0.10 0.10 0.10 0.10 0.11 0.12 0.13 0.13 0.13 0.13 0.11 0.10 0.10 0.09 0.09 0.09 0.10 0.12 0.16 0.21 0.22 0.22 0.24 0.30 0.37 0.46 0.56 0.63 0.70 0.73 0.74 0.74 0.67 0.66 0.66 0.65 0.66 0.67 0.76
0.11 0.11 0.11 0.12 0.12 0.13 0.14 0.15 0.14 0.13 0.12 0.12 0.12 0.13 0.14 0.13 0.13 0.12 0.11 0.11 0.12 0.15 0.18 0.21 0.25 0.23 0.24 0.30 0.40 0.45 0.52 0.61 0.68 0.73 0.76 0.82 0.80 0.73 0.70 0.69 0.70 0.70 0.72 0.76
0.13 0.14 0.14 0.14 0.12 0.14 0.15 0.16 0.16 0.13 0.12 0.13 0.13 0.13 0.14 0.14 0.15 0.15 0.15 0.16 0.18 0.23 0.26 0.28 0.27 0.28 0.34 0.41 0.51 0.53 0.57 0.66 0.74 0.79 0.81 0.82 0.84 0.84 0.80 0.77 0.77 0.77 0.77 0.79
0.17 0.16 0.15 0.14 0.13 0.13 0.14 0.16 0.18 0.17 0.14 0.15 0.17 0.18 0.17 0.17 0.17 0.18 0.20 0.22 0.24 0.27 0.29 0.32 0.32 0.39 0.50 0.56 0.56 0.55 0.61 0.71 0.78 0.81 0.84 0.87 0.89 0.88 0.86 0.83 0.80 0.81 0.81 0.79
0.22 0.21 0.19 0.17 0.18 0.18 0.18 0.19 0.21 0.21 0.19 0.19 0.20 0.21 0.21 0.22 0.20 0.21 0.24 0.31 0.34 0.35 0.34 0.34 0.39 0.49 0.58 0.61 0.56 0.59 0.66 0.76 0.82 0.83 0.86 0.88 0.93 0.96 0.91 0.88 0.85 0.83 0.83 0.81
0.29 0.27 0.26 0.26 0.27 0.28 0.26 0.26 0.27 0.28 0.28 0.28 0.28 0.28 0.29 0.29 0.27 0.27 0.33 0.36 0.37 0.38 0.39 0.43 0.49 0.54 0.58 0.59 0.60 0.63 0.73 0.84 0.90 0.89 0.90 0.91 0.95 1.00 1.00 0.95 0.88 0.86 0.89 0.88
0.37 0.34 0.35 0.36 0.35 0.34 0.35 0.37 0.37 0.37 0.37 0.39 0.39 0.38 0.37 0.35 0.34 0.36 0.41 0.43 0.42 0.42 0.46 0.50 0.52 0.54 0.57 0.58 0.63 0.72 0.83 0.92 0.96 0.96 0.96 0.95 0.98 1.02 1.01 0.98 0.92 0.86 0.86 0.86
0.43 0.42 0.41 0.42 0.45 0.48 0.47 0.44 0.42 0.41 0.40 0.42 0.43 0.43 0.42 0.42 0.44 0.47 0.47 0.46 0.45 0.45 0.47 0.50 0.52 0.53 0.55 0.60 0.69 0.81 0.90 0.96 1.04 1.06 1.04 1.03 1.01 1.02 1.02 0.97 0.91 0.85 0.82 0.81
0.48 0.48 0.50 0.52 0.56 0.56 0.53 0.48 0.46 0.45 0.42 0.41 0.42 0.43 0.44 0.45 0.47 0.49 0.49 0.48 0.47 0.49 0.51 0.51 0.52 0.56 0.61 0.67 0.74 0.83 0.90 0.97 1.05 1.07 1.02 0.99 0.99 1.01 1.03 0.98 0.88 0.81 0.76 0.75
0.51 0.50 0.49 0.49 0.52 0.54 0.53 0.52 0.52 0.51 0.46 0.43 0.43 0.44 0.44 0.45 0.47 0.48 0.48 0.47 0.48 0.49 0.52 0.54 0.57 0.61 0.65 0.71 0.78 0.83 0.90 0.96 1.06 1.12 1.05 1.01 1.02 1.02 1.01 0.94 0.84 0.76 0.72 0.71